TimeEDT,TemperatureF,Dew PointF,Humidity,Sea Level PressureIn,VisibilityMPH,Wind Direction,Wind SpeedMPH,Gust SpeedMPH,PrecipitationIn,Events,Conditions,WindDirDegrees,DateUTC
12:53 AM,44.1,43.0,96,29.92,0.5,NW,4.6,-,N/A,Fog,Fog,320,2013-03-19 04:53:00
1:53 AM,45.0,44.1,97,29.91,0.5,NNW,4.6,-,N/A,Fog,Fog,330,2013-03-19 05:53:00
2:53 AM,45.0,44.1,97,29.91,0.5,North,3.5,-,N/A,Fog,Fog,360,2013-03-19 06:53:00
3:53 AM,45.0,44.1,97,29.91,0.2,WNW,5.8,-,N/A,Fog,Fog,300,2013-03-19 07:53:00
4:53 AM,45.0,44.1,97,29.93,0.2,West,6.9,-,0.01,Fog,Fog,280,2013-03-19 08:53:00
5:53 AM,45.0,44.1,97,29.93,0.2,WNW,5.8,-,N/A,Fog,Fog,290,2013-03-19 09:53:00
6:19 AM,46.4,44.6,93,29.94,1.2,WNW,6.9,-,N/A,,Overcast,290,2013-03-19 10:19:00
6:30 AM,46.4,44.6,93,29.95,1.8,WNW,8.1,-,N/A,,Overcast,300,2013-03-19 10:30:00
6:39 AM,46.4,44.6,93,29.96,2.5,WNW,9.2,-,N/A,,Overcast,290,2013-03-19 10:39:00
6:53 AM,46.0,45.0,96,29.97,6.0,WNW,9.2,-,N/A,,Mostly Cloudy,290,2013-03-19 10:53:00
7:07 AM,46.4,44.6,93,29.98,8.0,WNW,8.1,-,N/A,,Scattered Clouds,300,2013-03-19 11:07:00
7:53 AM,45.0,39.9,82,30.00,10.0,WNW,9.2,-,N/A,,Clear,300,2013-03-19 11:53:00
8:53 AM,45.0,33.1,63,30.02,10.0,NW,6.9,-,N/A,,Clear,310,2013-03-19 12:53:00
9:53 AM,46.9,27.0,46,30.02,10.0,NW,6.9,-,N/A,,Clear,310,2013-03-19 13:53:00
10:53 AM,51.1,24.1,35,30.03,10.0,NW,13.8,-,N/A,,Clear,310,2013-03-19 14:53:00
11:53 AM,55.0,21.0,27,30.05,10.0,WNW,15.0,19.6,N/A,,Clear,300,2013-03-19 15:53:00
12:53 PM,57.0,19.9,24,30.04,10.0,NW,9.2,18.4,N/A,,Clear,320,2013-03-19 16:53:00
1:53 PM,59.0,24.1,26,30.04,10.0,WNW,12.7,18.4,N/A,,Clear,300,2013-03-19 17:53:00
2:53 PM,61.0,24.1,24,30.02,10.0,WNW,12.7,17.3,N/A,,Clear,300,2013-03-19 18:53:00
3:53 PM,62.1,24.1,23,30.03,10.0,West,13.8,21.9,N/A,,Clear,280,2013-03-19 19:53:00
4:53 PM,61.0,28.0,29,30.03,10.0,West,16.1,24.2,N/A,,Clear,260,2013-03-19 20:53:00
5:53 PM,61.0,21.9,22,30.03,10.0,WNW,12.7,21.9,N/A,,Clear,300,2013-03-19 21:53:00
6:53 PM,59.0,24.1,26,30.04,10.0,WNW,12.7,20.7,N/A,,Clear,300,2013-03-19 22:53:00
7:53 PM,55.9,19.0,24,30.06,10.0,NNW,8.1,-,N/A,,Clear,340,2013-03-19 23:53:00
8:53 PM,54.0,17.1,23,30.06,10.0,NW,4.6,-,N/A,,Clear,310,2013-03-20 00:53:00
9:53 PM,53.1,18.0,25,30.07,10.0,NNW,6.9,-,N/A,,Clear,340,2013-03-20 01:53:00
10:53 PM,51.1,19.0,28,30.08,10.0,NNW,9.2,-,N/A,,Clear,340,2013-03-20 02:53:00
11:53 PM,48.9,19.0,31,30.08,10.0,NNW,5.8,-,N/A,,Clear,340,2013-03-20 03:53:00